When you browse on this site, cookies collect data to enhance your experience and personalize the content and advertising you see.
Visit our Privacy Policy to learn more. By continuing to use the site, you agree to this use of cookies and data.
  • In United Kingdom
  • List of Countries
  • For 7 days
  • Water Temperature
  • Satellite Maps
  • Weather Map
  • Weather Widgets
  • user-avatar
    Login

    Hourly Weather Udzierz

    Today, 21 February, Thursday

    Time Temperature Precipitation Wind Pressure Humidity
    00:00 +3°C° 0 mm 2 mps 757 mmHg 93%
    01:00 +2°C° 0 mm 2 mps 757 mmHg 95%
    02:00 +3°C° 0.2 mm 2 mps 757 mmHg 95%
    03:00 +3°C° 0.2 mm 2 mps 757 mmHg 95%
    04:00 +3°C° 0.2 mm 2 mps 757 mmHg 96%
    05:00 +3°C° 0.4 mm 2 mps 757 mmHg 96%
    06:00 +4°C° 0.4 mm 2 mps 757 mmHg 96%
    07:00 +4°C° 0.4 mm 2 mps 756 mmHg 96%
    08:00 +3°C° 0.8 mm 3 mps 756 mmHg 95%
    09:00 +4°C° 0.8 mm 3 mps 756 mmHg 94%
    10:00 +4°C° 0.8 mm 3 mps 756 mmHg 92%
    11:00 +4°C° 1.2 mm 3 mps 756 mmHg 92%
    12:00 +4°C° 1.2 mm 3 mps 756 mmHg 91%
    13:00 +4°C° 1.2 mm 3 mps 756 mmHg 91%
    14:00 +4°C° 1.2 mm 3 mps 755 mmHg 91%
    15:00 +4°C° 1.2 mm 3 mps 755 mmHg 92%
    16:00 +4°C° 1.2 mm 3 mps 755 mmHg 92%
    17:00 +4°C° 1 mm 3 mps 755 mmHg 93%
    18:00 +5°C° 1 mm 2 mps 755 mmHg 94%
    19:00 +5°C° 1 mm 2 mps 755 mmHg 95%
    20:00 +4°C° 0.6 mm 3 mps 755 mmHg 94%
    21:00 +4°C° 0.6 mm 3 mps 755 mmHg 94%
    22:00 +4°C° 0.6 mm 4 mps 756 mmHg 93%
    23:00 +1°C° 0.3 mm 4 mps 756 mmHg 90%

    Tomorrow, 22 February, Friday

    Time Temperature Precipitation Wind Pressure Humidity
    00:00 0°C° 0.3 mm 5 mps 757 mmHg 87%
    01:00 -3°C° 0.3 mm 6 mps 758 mmHg 85%
    02:00 -3°C° 0 mm 6 mps 759 mmHg 81%
    03:00 -4°C° 0 mm 6 mps 760 mmHg 77%
    04:00 -5°C° 0 mm 6 mps 761 mmHg 73%
    05:00 -5°C° 0 mm 5 mps 762 mmHg 69%
    06:00 -5°C° 0 mm 5 mps 764 mmHg 66%
    07:00 -6°C° 0 mm 5 mps 765 mmHg 62%
    08:00 -5°C° 0 mm 5 mps 766 mmHg 58%
    09:00 -5°C° 0 mm 5 mps 767 mmHg 54%
    10:00 -4°C° 0 mm 5 mps 768 mmHg 49%
    11:00 -3°C° 0 mm 4 mps 769 mmHg 47%
    12:00 -3°C° 0 mm 4 mps 769 mmHg 44%
    13:00 -2°C° 0 mm 4 mps 770 mmHg 41%
    14:00 -3°C° 0 mm 4 mps 770 mmHg 43%
    15:00 -3°C° 0 mm 4 mps 770 mmHg 44%
    16:00 -3°C° 0 mm 4 mps 771 mmHg 46%
    17:00 -4°C° 0 mm 3 mps 771 mmHg 48%
    18:00 -4°C° 0 mm 3 mps 771 mmHg 50%
    19:00 -5°C° 0 mm 3 mps 772 mmHg 52%
    20:00 -5°C° 0 mm 3 mps 772 mmHg 51%
    21:00 -4°C° 0 mm 2 mps 773 mmHg 50%
    22:00 -4°C° 0 mm 2 mps 773 mmHg 49%
    23:00 -4°C° 0 mm 2 mps 773 mmHg 47%

    Day after tomorrow, 23 February, Saturday

    Time Temperature Precipitation Wind Pressure Humidity
    00:00 -2°C° 0 mm 1 mps 773 mmHg 46%
    01:00 -2°C° 0 mm 1 mps 773 mmHg 45%
    02:00 -2°C° 0 mm 1 mps 773 mmHg 44%
    03:00 -3°C° 0 mm 0 mps 773 mmHg 44%
    04:00 -3°C° 0 mm 0 mps 773 mmHg 43%
    05:00 -3°C° 0 mm 0 mps 773 mmHg 43%
    06:00 -3°C° 0 mm 0 mps 773 mmHg 43%
    07:00 -3°C° 0 mm 0 mps 774 mmHg 44%
    08:00 -2°C° 0 mm 0 mps 774 mmHg 40%
    09:00 -1°C° 0 mm 1 mps 774 mmHg 36%
    10:00 0°C° 0 mm 1 mps 774 mmHg 33%
    11:00 +1°C° 0 mm 1 mps 773 mmHg 31%
    12:00 +1°C° 0 mm 2 mps 773 mmHg 30%
    13:00 +1°C° 0 mm 2 mps 773 mmHg 28%
    14:00 +1°C° 0 mm 2 mps 773 mmHg 31%
    15:00 +1°C° 0 mm 2 mps 772 mmHg 33%
    16:00 +1°C° 0 mm 2 mps 772 mmHg 36%
    17:00 -1°C° 0 mm 2 mps 772 mmHg 39%
    18:00 -1°C° 0 mm 2 mps 772 mmHg 43%
    19:00 -2°C° 0 mm 2 mps 771 mmHg 46%
    20:00 -2°C° 0 mm 2 mps 771 mmHg 47%
    21:00 -2°C° 0 mm 2 mps 771 mmHg 47%
    22:00 -2°C° 0 mm 3 mps 771 mmHg 48%
    23:00 -1°C° 0 mm 3 mps 770 mmHg 48%

    24 February, Sunday

    Time Temperature Precipitation Wind Pressure Humidity
    00:00 -1°C° 0 mm 3 mps 770 mmHg 49%
    01:00 -1°C° 0 mm 3 mps 770 mmHg 50%
    02:00 -1°C° 0 mm 3 mps 770 mmHg 51%
    03:00 -1°C° 0 mm 3 mps 769 mmHg 52%
    04:00 -1°C° 0 mm 3 mps 769 mmHg 53%
    05:00 -2°C° 0 mm 3 mps 769 mmHg 55%
    06:00 -2°C° 0 mm 3 mps 768 mmHg 57%
    07:00 -2°C° 0 mm 3 mps 768 mmHg 59%
    08:00 0°C° 0 mm 3 mps 768 mmHg 58%
    09:00 +1°C° 0 mm 3 mps 768 mmHg 57%
    10:00 +2°C° 0 mm 3 mps 768 mmHg 57%
    11:00 +3°C° 0 mm 3 mps 767 mmHg 59%
    12:00 +4°C° 0 mm 3 mps 767 mmHg 61%
    13:00 +4°C° 0 mm 3 mps 766 mmHg 63%
    14:00 +4°C° 0 mm 3 mps 766 mmHg 66%
    15:00 +4°C° 0 mm 3 mps 766 mmHg 68%
    16:00 +4°C° 0 mm 3 mps 765 mmHg 71%
    17:00 +4°C° 0 mm 3 mps 765 mmHg 72%
    18:00 +3°C° 0 mm 3 mps 765 mmHg 72%
    19:00 +1°C° 0 mm 4 mps 764 mmHg 73%
    20:00 +1°C° 0 mm 4 mps 764 mmHg 78%
    21:00 +1°C° 0 mm 4 mps 764 mmHg 82%
    22:00 +1°C° 0 mm 4 mps 764 mmHg 87%
    23:00 +3°C° 0 mm 4 mps 765 mmHg 88%

    25 February, Monday

    Time Temperature Precipitation Wind Pressure Humidity
    00:00 +3°C° 0 mm 4 mps 765 mmHg 90%
    01:00 +2°C° 0 mm 5 mps 766 mmHg 92%
    02:00 +2°C° 0 mm 5 mps 766 mmHg 90%
    03:00 +1°C° 0 mm 5 mps 766 mmHg 89%
    04:00 +1°C° 0 mm 5 mps 767 mmHg 88%
    05:00 0°C° 0 mm 4 mps 767 mmHg 88%
    06:00 0°C° 0 mm 4 mps 767 mmHg 88%
    07:00 +1°C° 0 mm 3 mps 768 mmHg 88%
    08:00 +1°C° 0 mm 4 mps 768 mmHg 81%
    09:00 +3°C° 0 mm 4 mps 769 mmHg 74%
    10:00 +4°C° 0 mm 4 mps 769 mmHg 67%
    11:00 +5°C° 0 mm 4 mps 769 mmHg 62%
    12:00 +6°C° 0 mm 4 mps 769 mmHg 56%
    13:00 +7°C° 0 mm 4 mps 769 mmHg 51%
    14:00 +8°C° 0 mm 3 mps 769 mmHg 52%
    15:00 +7°C° 0 mm 3 mps 768 mmHg 54%
    16:00 +7°C° 0 mm 2 mps 768 mmHg 56%
    17:00 +6°C° 0 mm 2 mps 768 mmHg 61%
    18:00 +5°C° 0 mm 2 mps 768 mmHg 66%
    19:00 +3°C° 0 mm 3 mps 768 mmHg 72%
    20:00 +3°C° 0 mm 3 mps 768 mmHg 71%
    21:00 +2°C° 0 mm 3 mps 767 mmHg 71%
    22:00 +1°C° 0 mm 4 mps 766 mmHg 70%
    23:00 +1°C° 0 mm 4 mps 765 mmHg 73%

    26 February, Tuesday

    Time Temperature Precipitation Wind Pressure Humidity
    00:00 +3°C° 0 mm 4 mps 765 mmHg 75%
    01:00 +2°C° 0 mm 5 mps 764 mmHg 77%
    02:00 +2°C° 0 mm 5 mps 763 mmHg 79%
    03:00 +2°C° 0 mm 5 mps 763 mmHg 80%
    04:00 +2°C° 0 mm 5 mps 762 mmHg 82%
    05:00 +3°C° 0 mm 4 mps 762 mmHg 80%
    06:00 +3°C° 0 mm 4 mps 761 mmHg 78%
    07:00 +4°C° 0 mm 4 mps 761 mmHg 75%
    08:00 +4°C° 0 mm 4 mps 761 mmHg 73%
    09:00 +5°C° 0 mm 4 mps 761 mmHg 71%
    10:00 +5°C° 0 mm 4 mps 760 mmHg 69%
    11:00 +6°C° 0 mm 4 mps 760 mmHg 67%
    12:00 +7°C° 0 mm 4 mps 759 mmHg 64%
    13:00 +8°C° 0 mm 5 mps 759 mmHg 61%
    14:00 +8°C° 0 mm 4 mps 759 mmHg 63%
    15:00 +8°C° 0 mm 4 mps 758 mmHg 65%
    16:00 +8°C° 0 mm 4 mps 758 mmHg 67%
    17:00 +7°C° 0 mm 4 mps 758 mmHg 73%
    18:00 +6°C° 0 mm 4 mps 758 mmHg 79%
    19:00 +5°C° 0 mm 3 mps 758 mmHg 85%
    20:00 +4°C° 0 mm 3 mps 758 mmHg 87%
    21:00 +4°C° 0 mm 3 mps 759 mmHg 90%
    22:00 +4°C° 0 mm 2 mps 759 mmHg 93%
    23:00 +4°C° 0 mm 2 mps 759 mmHg 92%
    Show more